User: anonymous
Location: Lamoine Observatory
(44.4551°N, 68.3470°W)
Time: 16:04:58
(UTC-04:00)
Language:

Cosmos 1674 Rocket - Orbit

View from above orbital plane
View from above orbital plane
View from above satellite
View from above satellite

Ground track
Ground track

The orbit data is extracted from the following two-line orbital elements,

1 15945U 85069B   14240.94385971  .00000366  00000-0  41562-4 0  7387
2 15945 082.5300 011.0483 0020971 061.5432 074.1374 14.83388817569301
Epoch (UTC): 28 August 2014 22:39:09
Eccentricity: 0.0020971
inclination: 82.5300°
perigee height: 604 km
apogee height: 633 km
right ascension of ascending node: 11.0483°
argument of perigee: 61.5432°
revolutions per day: 14.83388817
mean anomaly at epoch: 74.1374°
orbit number at epoch: 56930

The dashed part of the orbit path shows where the satellite is in the earth's shadow,  

DLR